Regional Weather Roundup
Issued by NWS Bismarck, ND

Home | Current Version | Previous Version | Text Only | Print | Product List | Glossary On
Versions: 1 2 3 4 5 6 7 8 9 10 11 12 13 14 15 16 17 18 19 20 21 22 23 24 25 26 27 28 29 30 31 32 33 34 35 36 37 38 39 40 41 42 43 44 45 46 47 48 49 50
000
ASUS43 KBIS 240610
RWRBIS

NWR BROADCAST TEXT
NATIONAL WEATHER SERVICE BISMARCK ND
1200 AM CST FRI FEB 24 2017

NOTE: "FAIR" INDICATES FEW OR NO CLOUDS BELOW 12,000 FEET WITH NO
SIGNIFICANT WEATHER AND/OR OBSTRUCTIONS TO VISIBILITY.


CITY           SKY/WX    TMP DP  RH WIND       PRES   REMARKS
WILLISTON      FAIR      11  10  96 CALM      30.16S
MINOT          FAIR      19  14  81 SW7       30.12F WCI  10
MINOT AFB      CLOUDY    18  15  86 W7        30.12F WCI   9
BISMARCK       FAIR      19  13  77 N7        30.15R WCI  10
DICKINSON      FAIR      13   8  81 N5        30.09R WCI   5
GARRISON         N/A     10   6  84 NW6       30.13R WCI   0
HETTINGER ARPT MOCLDY    17  12  80 N9        30.09R WCI   6
JAMESTOWN      FAIR      20  16  84 N8        30.10S WCI  10
CARRINGTON     FAIR      18  14  86 N6        30.13R WCI   9
HAZEN            N/A    N/A N/A N/A SE6       30.17R
MANDAN         FAIR      16  12  86 NW7       30.14R WCI   6
RUGBY            N/A     10  10 100 NW5       30.13R WCI   2
STANLEY        CLOUDY    18  18 100 W7        30.14S WCI   8
TIOGA          CLOUDY    14  14 100 W6        30.14S WCI   5
WATFORD CITY   FAIR      10   9  92 CALM      30.16R
$$

CITY           SKY/WX    TMP DP  RH WIND       PRES   REMARKS
GRAND FORKS    FAIR      18  10  71 N5        30.15R WCI  11
GRAND FORKS AF FAIR      16  13  87 NE6       30.15R WCI   7
DEVILS LAKE    FAIR      14  12  92 NW7       30.11S WCI   4
FARGO          FAIR      22  13  68 N17       30.11R WCI   8
CAVALIER         N/A     10  10 100 NW6       30.15S WCI   1
GRAFTON        FAIR      16  14  93 NW7       30.16S WCI   6
GWINNER        FAIR      23  19  86 N17       30.08F WCI   9
ROLLA          CLOUDY    21  16  79 W8        30.10S WCI  12
$$

CITY           SKY/WX    TMP DP  RH WIND       PRES   REMARKS
ABERDEEN       MOCLDY    22  14  71 N16G28    30.05R WCI   8
MOBRIDGE       CLOUDY    27  19  72 N13       30.04S WCI  16
BUFFALO          N/A     23  21  92 NE18      29.97S WCI   9
RAPID CITY     MIX PCPN  25  20  81 NE14      29.99R WCI  13
GLASGOW        CLOUDY    25  18  74 E10       30.10F WCI  15
SIDNEY         CLOUDY    24  19  81 NE6       30.15S WCI  17
WOLF POINT     CLOUDY    26  18  71 E8        30.14S WCI  18
GLENDIVE       FLURRIES  24  22  91 NE9       30.11S WCI  14
MILES CITY     CLOUDY    28  23  81 NE12      30.06R WCI  18
BAKER          CLOUDY    23  21  92 E14       30.07R WCI  11
$$

CITY           SKY/WX    TMP DP  RH WIND       PRES   REMARKS
BILLINGS       LGT SNOW  26  24  92 NE8       29.97S FOG     WCI  18
GREAT FALLS    CLOUDY    24  22  91 N7        29.96S WCI  16
REGINA         MOCLDY    25  19  80 CALM      30.12R
ESTEVAN        MOCLDY    23  19  86 W7        30.14R WCI  15
$$





USA.gov is the U.S. government's official web portal to all federal, state and local government web resources and services.